[[{"header":{"parameterUnit":"m.s-1","parameterCategory":1,"la1":30.2991,"la2":30.254,"lo1":-89.0895,"lo2":-89.0444,"dy":0.0017,"dx":0.0017,"nx":28,"ny":28,"refTime":"2024-09-04T09:00:00:Z","depth":0,"parameterNumber":2,"parameterNumberName":"U-component_of_WINDS"},"data":[0,0,0,0,0,0,0,0,0,0,0,0,0,0,0,0,0,0,0,0,0,0,0,0,0,0,0,0,0,0,0,0,0,0,0,0,0,0,0,0,0,0,0,0,0,0,0,0,0,0,0,0,0,0,0,0,0,0,-7.5758,-7.5758,0,-7.5778,-7.5778,-7.5778,-7.5612,-7.5608,-7.5603,-7.5599,-7.5616,-7.5621,-7.5626,0,0,0,0,0,0,0,0,0,0,0,0,0,-7.5572,-7.5577,-7.5757,-7.5758,-7.5758,-7.5778,-7.5778,-7.5778,-7.5613,-7.5608,-7.5602,-7.5597,-7.5615,-7.5621,-7.5626,0,0,0,0,0,0,0,0,0,0,0,0,0,-7.5629,-7.5578,-7.5757,-7.5678,-7.5671,-7.5778,-7.5778,-7.5779,-7.5614,-7.5607,-7.56,-7.5594,-7.5613,-7.562,-7.5627,-7.581,0,0,-7.5649,-7.5652,0,0,0,0,0,0,0,0,-7.5626,-7.5636,-7.5689,-7.5684,-7.5676,-7.5686,-7.5719,-7.5789,-7.5616,-7.5636,-7.5599,-7.5591,-7.5645,-7.5649,-7.5668,-7.5811,-7.5812,-7.565,-7.5654,-7.5657,-7.5659,0,0,0,0,0,0,0,-7.5622,-7.5634,-7.5765,-7.569,-7.5682,-7.564,-7.5641,-7.5732,-7.5679,-7.5634,-7.5622,-7.5626,-7.564,-7.5661,-7.5667,-7.5812,-7.5649,-7.5656,-7.566,-7.5663,-7.6105,-7.6112,0,0,0,0,0,0,-7.5629,-7.5632,-7.5765,-7.5766,-7.5634,-7.5649,-7.565,-7.5689,-7.5677,-7.5669,-7.5632,-7.5619,-7.5653,-7.5659,-7.5667,-7.5878,-7.5657,-7.5664,-7.5668,-7.6097,-7.6106,-7.6114,0,0,0,0,0,0,-7.5626,-7.5643,-7.5764,-7.5696,-7.5708,-7.566,-7.5706,-7.5694,-7.5715,-7.5677,-7.5666,-7.5664,-7.5647,-7.5657,-7.5776,-7.5877,-7.5667,-7.5673,-7.6088,-7.61,-7.611,-7.6305,0,0,0,0,0,0,-7.5621,-7.5643,-7.5712,-7.5699,-7.5712,-7.5873,-7.5712,-7.5699,-7.5728,-7.571,-7.5704,-7.5696,-7.5643,-7.5766,-7.5783,-7.5883,-7.5679,-7.6079,-7.6094,-7.6107,-7.6289,-7.6321,-7.6348,0,0,0,0,0,-7.5615,-7.5765,-7.5716,-7.5733,-7.5798,-7.588,-7.5887,-7.5824,-7.5737,-7.5806,-7.5781,-7.5696,-7.5864,-7.5779,-7.5797,-7.5901,-7.6072,-7.6089,-7.6106,-7.6275,-7.6315,-7.6348,0,0,0,0,0,0,-7.579,-7.5762,-7.5707,-7.5858,-7.5873,-7.5851,-7.5936,-7.5868,-7.5906,-7.5888,-7.5807,-7.5807,-7.5939,-7.5932,-7.5838,-7.6077,-7.5953,-7.5974,-7.6076,-7.6113,-7.6142,-7.6139,-7.5685,0,0,0,0,0,-7.5847,-7.5916,-7.5888,-7.6023,-7.6033,-7.5985,-7.6017,-7.5968,-7.5979,-7.5984,-7.5968,-7.5982,-7.6037,-7.6075,-7.6124,-7.6288,-7.6283,-7.6369,-7.6399,-7.6423,-7.6441,-7.6526,-7.6563,-7.6169,-7.6169,-7.6169,0,0,-7.5963,-7.5957,-7.6005,-7.6058,-7.6063,-7.6136,-7.599,-7.6073,-7.6125,-7.5996,-7.6106,-7.6096,-7.6106,-7.6248,-7.6309,-7.6246,-7.655,-7.6445,-7.6465,-7.6469,-7.6547,-7.6584,-7.6618,-7.618,-7.6178,-7.6177,0,0,-7.6211,-7.6215,-7.6327,-7.6336,-7.6347,-7.6314,-7.6342,-7.6332,-7.632,-7.643,-7.6334,-7.6395,-7.6493,-7.6504,-7.6522,-7.6778,-7.67,-7.6796,-7.695,-7.7034,-7.7065,-7.7092,-7.718,-7.7214,-7.6815,-7.6815,-7.6816,0,-7.6354,-7.646,-7.6393,-7.6483,-7.6508,-7.6397,-7.6509,-7.6521,-7.6548,-7.6567,-7.6497,-7.6617,-7.6616,-7.6758,-7.6821,-7.6841,-7.6868,-7.6794,-7.7066,-7.7093,-7.7117,-7.72,-7.7234,-7.6827,-7.6825,-7.6824,-7.6823,0,-7.6634,-7.671,-7.6799,-7.6828,-7.6864,-7.6965,-7.6913,-7.6957,-7.6906,-7.688,-7.6993,-7.6989,-7.7034,-7.7065,-7.7015,-7.7201,-7.7161,-7.7081,-7.6953,-7.7167,-7.7244,-7.7275,-7.6843,-7.6839,-7.6836,-7.6833,0,0,-7.6989,-7.6982,-7.7016,-7.7027,-7.7033,-7.7089,-7.7185,-7.7231,-7.727,-7.7293,-7.737,-7.7457,-7.7382,-7.7403,-7.7354,-7.7428,-7.7628,-7.7337,-7.7336,-7.7389,-7.7829,-7.7887,-7.7926,-7.7578,-7.7584,-7.7589,-7.7827,0,-7.7228,-7.7392,-7.7336,-7.7502,-7.757,-7.7466,-7.755,-7.7562,-7.7541,-7.7595,-7.7571,-7.7633,-7.7531,-7.7543,-7.7612,-7.7589,-7.7715,-7.7571,-7.7646,-7.765,-7.7643,-7.7966,-7.8028,-7.8253,-7.7857,-7.7863,-7.7866,0,-7.7529,-7.7565,-7.7739,-7.7733,-7.7759,-7.7835,-7.7872,-7.7926,-7.7938,-7.7917,-7.7943,-7.7878,-7.797,-7.7847,-7.7972,-7.7876,-7.7904,-7.7898,-7.7905,-7.7906,-7.7768,-7.7973,-7.8323,-7.8356,-7.7913,-7.791,-7.7906,0,-7.7766,-7.7859,-7.7974,-7.7988,-7.7985,-7.804,-7.8041,-7.8046,-7.8078,-7.8111,-7.813,-7.8175,-7.8198,-7.8233,-7.8181,-7.8096,-7.8313,-7.8186,-7.8297,-7.8298,-7.8343,-7.834,-7.87,-7.8369,-7.8368,-7.8367,-7.8367,0,-7.8038,-7.8147,-7.8081,-7.8152,-7.8271,-7.8206,-7.8326,-7.8315,-7.8321,-7.8386,-7.8301,-7.8364,-7.8294,-7.8351,-7.8312,-7.842,-7.8432,-7.8416,-7.8404,-7.8422,-7.8424,-7.8436,-7.8417,-7.8376,-7.8374,-7.8372,-7.8371,0,-7.8321,-7.8282,-7.84,-7.8389,-7.8388,-7.8477,-7.8465,-7.853,-7.8505,-7.8589,-7.8605,-7.8565,-7.8627,-7.8581,-7.8642,-7.8615,-7.8758,-7.8725,-7.8754,-7.8743,-7.8856,-7.8845,-7.9232,-7.9279,-7.8922,-7.8925,-7.8928,0,-7.8494,-7.8576,-7.8574,-7.8613,-7.862,-7.8684,-7.8716,-7.8656,-7.8693,-7.8713,-7.8775,-7.8831,-7.8871,-7.8976,-7.8951,-7.8998,-7.8963,-7.9096,-7.8969,-7.8984,-7.8961,-7.8955,-7.8962,-7.912,-7.9124,-7.9128,-7.9131,0,-7.8806,-7.8783,-7.8833,-7.8878,-7.892,-7.8951,-7.8976,-7.9013,-7.8952,-7.8998,-7.9061,-7.9093,-7.9157,-7.9212,-7.9251,-7.925,-7.918,-7.9172,-7.9199,-7.9216,-7.9228,-7.922,-7.882,-7.9162,-7.9159,-7.9156,-7.9155,-7.9153,-7.9036,-7.9104,-7.9114,-7.9173,-7.9186,-7.9212,-7.9271,-7.9255,-7.9307,-7.9355,-7.9317,-7.9393,-7.9402,-7.9446,-7.9455,-7.9513,-7.9457,-7.9498,-7.9507,-7.9517,-7.9532,-7.9223,-7.952,-7.9519,-7.9518,-7.9517,-7.9516,0,-7.934,-7.9342,-7.9398,-7.9436,-7.9483,-7.9416,-7.9441,-7.9483,-7.9552,-7.9568,-7.961,-7.9683,-7.9737,-7.9719,-7.9766,-7.9816,-7.9785,-7.983,-7.9823,-7.9824,-7.958,-7.955,-7.9854,-7.9854,-7.9854,-7.9854,-7.9854,-7.9854,-7.9503,-7.9613,-7.9593,-7.9709,-7.9709,-7.9784,-7.9803,-7.9826,-7.9838,-7.9924,-7.9969,-7.9958,-7.996,-8.0007,-8.0053,-8.0046,-8.0066,-8.0123,-8.0104,-7.9875,-7.9842,-7.981,-7.9781,-8.0129,-8.0129,-8.0342,-8.0344,-8.0346]},{"header":{"parameterUnit":"m.s-1","parameterCategory":1,"la1":30.2991,"la2":30.254,"lo1":-89.0895,"lo2":-89.0444,"dy":0.0017,"dx":0.0017,"nx":28,"ny":28,"refTime":"2024-09-04T09:00:00:Z","depth":0,"parameterNumber":3,"parameterNumberName":"V-component_of_WINDS"},"data":[0,0,0,0,0,0,0,0,0,0,0,0,0,0,0,0,0,0,0,0,0,0,0,0,0,0,0,0,0,0,0,0,0,0,0,0,0,0,0,0,0,0,0,0,0,0,0,0,0,0,0,0,0,0,0,0,0,0,0.2921,0.2918,0,0.2688,0.2686,0.2683,0.2553,0.2553,0.2552,0.2552,0.2304,0.2298,0.2292,0,0,0,0,0,0,0,0,0,0,0,0,0,0.3244,0.3239,0.2921,0.2918,0.2915,0.2689,0.2685,0.2682,0.2553,0.2553,0.2552,0.2552,0.2306,0.2299,0.2291,0,0,0,0,0,0,0,0,0,0,0,0,0,0.3067,0.3237,0.2922,0.2824,0.2813,0.2689,0.2685,0.2681,0.2553,0.2553,0.2552,0.2552,0.2309,0.23,0.229,0.2243,0,0,0.2262,0.2258,0,0,0,0,0,0,0,0,0.3077,0.3055,0.2841,0.283,0.2818,0.2649,0.2708,0.2534,0.2553,0.2652,0.2552,0.2551,0.2419,0.24,0.2358,0.2232,0.2221,0.2261,0.2255,0.2251,0.2248,0,0,0,0,0,0,0,0.309,0.3064,0.2829,0.2838,0.2824,0.2788,0.2763,0.2675,0.2541,0.2643,0.2633,0.2608,0.2412,0.2367,0.2351,0.2217,0.2261,0.2253,0.2247,0.2243,0.2039,0.2039,0,0,0,0,0,0,0.3119,0.3076,0.2836,0.2822,0.2949,0.2783,0.2754,0.2704,0.2541,0.2516,0.2608,0.2603,0.2383,0.2362,0.2342,0.2275,0.2251,0.2242,0.2237,0.2039,0.2039,0.2039,0,0,0,0,0,0,0.3126,0.3099,0.2845,0.2946,0.2911,0.2778,0.2723,0.27,0.2654,0.2516,0.249,0.2588,0.2382,0.2355,0.2269,0.2264,0.2238,0.223,0.2039,0.2039,0.2039,0.2142,0,0,0,0,0,0,0.3136,0.3102,0.3085,0.2947,0.2906,0.278,0.2722,0.2695,0.2639,0.263,0.2489,0.2465,0.2379,0.2284,0.226,0.2251,0.2222,0.2038,0.2039,0.2039,0.2138,0.2146,0.2152,0,0,0,0,0,0.3148,0.3122,0.3085,0.3057,0.2883,0.278,0.2756,0.2661,0.264,0.262,0.2531,0.247,0.2269,0.2276,0.2248,0.2236,0.2038,0.2039,0.2039,0.2135,0.2144,0.2152,0,0,0,0,0,0,0.326,0.3102,0.3059,0.2988,0.2899,0.2759,0.2731,0.2674,0.2587,0.2581,0.2463,0.2432,0.2358,0.2288,0.2298,0.2181,0.2147,0.2142,0.223,0.2237,0.2244,0.2261,0.2214,0,0,0,0,0,0.3277,0.321,0.3074,0.3023,0.2981,0.2864,0.2816,0.2751,0.2652,0.2613,0.2517,0.2422,0.2336,0.2283,0.2197,0.2128,0.2094,0.2106,0.2113,0.2119,0.2116,0.2072,0.2075,0.2041,0.2041,0.2041,0,0,0.3309,0.3215,0.3179,0.3044,0.2967,0.2897,0.2833,0.2762,0.2708,0.2601,0.2515,0.2442,0.2326,0.2249,0.2209,0.2188,0.2118,0.212,0.2126,0.2118,0.2073,0.2076,0.2079,0.2041,0.2041,0.2041,0,0,0.3334,0.3257,0.3206,0.3131,0.3017,0.2939,0.2928,0.2796,0.2744,0.2657,0.2574,0.2507,0.2364,0.2285,0.2226,0.2222,0.2161,0.2197,0.2232,0.2191,0.2194,0.2196,0.2192,0.2193,0.2194,0.2194,0.2194,0,0.3388,0.3283,0.3186,0.312,0.3062,0.2965,0.2911,0.2842,0.2705,0.2665,0.2645,0.2463,0.2379,0.2281,0.228,0.2236,0.2217,0.2212,0.2202,0.2203,0.2203,0.2198,0.2198,0.2199,0.2199,0.2198,0.2198,0,0.3355,0.3283,0.3255,0.3129,0.3067,0.3008,0.2899,0.2848,0.2788,0.2712,0.2623,0.2519,0.241,0.2382,0.2322,0.2275,0.2265,0.2225,0.2188,0.2213,0.2206,0.2204,0.2206,0.2205,0.2203,0.2202,0,0,0.3442,0.3264,0.3255,0.3196,0.3064,0.3004,0.2939,0.2836,0.2794,0.2702,0.2643,0.2525,0.2487,0.242,0.235,0.2315,0.2316,0.2278,0.2273,0.2287,0.2255,0.2286,0.2286,0.2276,0.2275,0.2274,0.2265,0,0.3446,0.3329,0.324,0.3154,0.3086,0.2993,0.2936,0.2847,0.2774,0.2702,0.2619,0.2537,0.2494,0.2453,0.2414,0.2324,0.2307,0.2324,0.2216,0.2214,0.2247,0.2283,0.2314,0.231,0.2262,0.2261,0.2261,0,0.3435,0.3351,0.326,0.3134,0.3102,0.3053,0.2951,0.2885,0.278,0.2729,0.2657,0.2584,0.2508,0.248,0.2372,0.2385,0.2336,0.2285,0.2282,0.2267,0.2238,0.2267,0.2307,0.2306,0.2256,0.2257,0.2257,0,0.3507,0.3369,0.3297,0.325,0.3102,0.3069,0.3005,0.2901,0.2845,0.2754,0.2716,0.2617,0.2562,0.2486,0.2388,0.2377,0.229,0.2253,0.2243,0.2245,0.2227,0.2229,0.2258,0.2199,0.2199,0.2199,0.2199,0,0.352,0.3468,0.3327,0.3283,0.3221,0.3118,0.3058,0.2985,0.2893,0.2831,0.2743,0.2686,0.2561,0.2487,0.2409,0.2331,0.2307,0.2261,0.2241,0.2268,0.2274,0.2233,0.223,0.2198,0.2198,0.2198,0.2199,0,0.3589,0.3493,0.3408,0.3276,0.3241,0.3201,0.3086,0.3037,0.296,0.2882,0.2857,0.2735,0.2644,0.2539,0.2412,0.236,0.2287,0.2258,0.2323,0.2311,0.2306,0.2308,0.2308,0.2302,0.2249,0.225,0.2251,0,0.3603,0.3561,0.3425,0.3379,0.3319,0.3244,0.3187,0.3083,0.3027,0.2905,0.2871,0.2774,0.269,0.2548,0.2446,0.2348,0.2315,0.2322,0.2299,0.2328,0.2313,0.2316,0.2311,0.2328,0.2329,0.233,0.2331,0,0.3639,0.3594,0.3516,0.3423,0.3358,0.3278,0.3194,0.316,0.3038,0.2978,0.2886,0.2822,0.2694,0.2597,0.2487,0.2417,0.2352,0.2339,0.2331,0.2358,0.2397,0.2374,0.2339,0.2339,0.2338,0.2338,0.2337,0.2337,0.3679,0.3637,0.3536,0.3452,0.3379,0.3303,0.3251,0.3168,0.309,0.298,0.2923,0.2831,0.2725,0.2571,0.2504,0.2428,0.2406,0.2395,0.2392,0.239,0.2398,0.2411,0.2407,0.2407,0.2406,0.2406,0.2406,0,0.3709,0.3639,0.3564,0.3451,0.3384,0.3334,0.3238,0.3185,0.3106,0.3015,0.2936,0.2829,0.2735,0.2626,0.2524,0.2484,0.2452,0.2461,0.2462,0.2446,0.2423,0.244,0.2488,0.2488,0.2488,0.2488,0.2488,0.2488,0.3717,0.3643,0.3586,0.3474,0.3403,0.3315,0.3265,0.3193,0.312,0.3005,0.2928,0.2859,0.2759,0.265,0.2561,0.253,0.2496,0.2514,0.2475,0.2455,0.2448,0.2441,0.2456,0.2507,0.2508,0.2503,0.2503,0.2504]}]]